[[{"header":{"parameterUnit":"m.s-1","parameterCategory":1,"la1":30.2991,"la2":30.254,"lo1":-89.0895,"lo2":-89.0444,"dy":0.0017,"dx":0.0017,"nx":28,"ny":28,"refTime":"2026-01-29T03:00:00:Z","depth":0,"parameterNumber":2,"parameterNumberName":"U-component_of_WINDS"},"data":[0,0,0,0,0,0,0,0,0,0,0,0,0,0,0,0,0,0,0,0,0,0,0,0,0,0,0,0,0,0,0,0,0,0,0,0,0,0,0,0,0,0,0,0,0,0,0,0,0,0,0,0,0,0,0,0,0,0,1.717,1.7169,0,1.7086,1.7085,1.7084,1.707,1.7071,1.7071,1.7072,1.6986,1.6983,1.698,0,0,0,0,0,0,0,0,0,0,0,0,0,1.7319,1.7316,1.717,1.7169,1.7168,1.7086,1.7085,1.7083,1.707,1.7071,1.7071,1.7072,1.6987,1.6983,1.698,0,0,0,0,0,0,0,0,0,0,0,0,0,1.7246,1.7315,1.717,1.7151,1.7148,1.7086,1.7085,1.7083,1.7069,1.7071,1.7072,1.7073,1.6988,1.6984,1.6979,1.693,0,0,1.6966,1.6964,0,0,0,0,0,0,0,0,1.725,1.7241,1.7155,1.7152,1.7149,1.7089,1.7106,1.7032,1.7069,1.7099,1.7072,1.7073,1.7019,1.7012,1.6994,1.6926,1.6922,1.6965,1.6963,1.6961,1.6959,0,0,0,0,0,0,0,1.7255,1.7244,1.7136,1.7153,1.715,1.7147,1.7138,1.7092,1.7054,1.7097,1.7096,1.7086,1.7018,1.6999,1.6992,1.6921,1.6965,1.6961,1.6959,1.6957,1.6809,1.6808,0,0,0,0,0,0,1.7264,1.7249,1.7139,1.7134,1.7203,1.7143,1.7133,1.7107,1.7055,1.7048,1.7085,1.7086,1.7006,1.6997,1.6989,1.6928,1.6961,1.6957,1.6954,1.681,1.6808,1.6807,0,0,0,0,0,0,1.7267,1.7254,1.7142,1.7191,1.7176,1.7139,1.7111,1.7105,1.7086,1.7046,1.7039,1.7072,1.7006,1.6995,1.6945,1.6925,1.6955,1.6951,1.6812,1.681,1.6808,1.6806,0,0,0,0,0,0,1.7271,1.7255,1.7236,1.7191,1.7174,1.71,1.711,1.7103,1.7078,1.7078,1.7032,1.7025,1.7006,1.6952,1.6941,1.6919,1.6947,1.6813,1.6811,1.6808,1.6808,1.6804,1.6801,0,0,0,0,0,1.7277,1.7239,1.7235,1.7222,1.7149,1.7098,1.7089,1.7068,1.7076,1.7057,1.7031,1.7027,1.6929,1.6947,1.6934,1.6911,1.6814,1.6811,1.6809,1.6809,1.6805,1.6801,0,0,0,0,0,0,1.7283,1.7232,1.7228,1.7174,1.7141,1.7096,1.7071,1.7064,1.7027,1.7029,1.7004,1.6994,1.6945,1.6923,1.6943,1.6861,1.6872,1.6867,1.6877,1.6873,1.687,1.6876,1.6943,0,0,0,0,0,1.7278,1.7241,1.7199,1.7156,1.7139,1.7108,1.7085,1.7072,1.7036,1.7022,1.6993,1.6958,1.692,1.6895,1.6858,1.6805,1.6795,1.6783,1.678,1.6777,1.6773,1.6743,1.6738,1.6798,1.6798,1.6798,0,0,1.7267,1.7235,1.7213,1.7156,1.7129,1.7091,1.7096,1.7056,1.7028,1.7016,1.6967,1.6944,1.6904,1.6852,1.6828,1.6832,1.6754,1.6774,1.6772,1.6769,1.674,1.6734,1.6729,1.6796,1.6796,1.6796,0,0,1.7229,1.7201,1.7162,1.7134,1.7093,1.7073,1.7063,1.702,1.7004,1.6955,1.6945,1.6911,1.6846,1.6818,1.6795,1.6747,1.6741,1.6735,1.6719,1.669,1.6686,1.6681,1.6664,1.6659,1.6731,1.6731,1.6731,0,1.7221,1.7164,1.7143,1.7103,1.7078,1.7066,1.7026,1.7001,1.6949,1.6932,1.6938,1.6856,1.6828,1.677,1.6758,1.674,1.6729,1.674,1.6688,1.6684,1.6679,1.6663,1.6656,1.6731,1.6731,1.6731,1.6731,0,1.7156,1.7117,1.7091,1.7041,1.7014,1.6974,1.6947,1.6922,1.6911,1.689,1.684,1.6806,1.6762,1.6747,1.6736,1.6687,1.6692,1.6693,1.6704,1.6673,1.6658,1.6651,1.673,1.673,1.673,1.673,0,0,1.7119,1.7059,1.7049,1.7027,1.6981,1.695,1.6911,1.6867,1.6846,1.6811,1.6777,1.6722,1.6724,1.6698,1.6684,1.6659,1.6623,1.6664,1.6662,1.6657,1.6568,1.6567,1.656,1.662,1.6618,1.6617,1.6571,0,1.7075,1.7004,1.6984,1.6924,1.6888,1.6876,1.6841,1.6809,1.6789,1.6755,1.6733,1.6694,1.6699,1.6683,1.6658,1.6633,1.6605,1.6636,1.6588,1.6587,1.6598,1.6552,1.655,1.6509,1.6565,1.6564,1.6563,0,1.7014,1.6978,1.6915,1.6874,1.6858,1.6827,1.6786,1.6754,1.6718,1.6705,1.6676,1.6665,1.6623,1.6637,1.6579,1.6601,1.658,1.6565,1.6563,1.6557,1.6573,1.6545,1.6495,1.6489,1.6553,1.6554,1.6554,0,1.6993,1.6929,1.6883,1.6865,1.6815,1.6794,1.6773,1.6738,1.6713,1.6677,1.6661,1.6621,1.6599,1.6569,1.6546,1.6558,1.6491,1.6502,1.6479,1.648,1.6465,1.6467,1.6411,1.6452,1.6452,1.6452,1.6452,0,1.6947,1.6908,1.6873,1.6845,1.6802,1.6779,1.6737,1.6715,1.6684,1.6652,1.6639,1.6608,1.6581,1.6547,1.653,1.6485,1.6475,1.6463,1.6459,1.6464,1.6466,1.6451,1.6453,1.645,1.6451,1.6451,1.6451,0,1.6916,1.6891,1.684,1.6798,1.6787,1.6757,1.6721,1.6693,1.6672,1.6631,1.662,1.6588,1.6547,1.6522,1.647,1.6459,1.641,1.6406,1.6422,1.642,1.6398,1.6401,1.6331,1.6321,1.6368,1.6368,1.6367,0,1.6888,1.6858,1.6813,1.679,1.6769,1.6732,1.6707,1.6684,1.6659,1.6616,1.6593,1.6552,1.6517,1.6453,1.6425,1.6386,1.6381,1.636,1.6375,1.6382,1.6381,1.6383,1.6381,1.6357,1.6357,1.6356,1.6356,0,1.684,1.683,1.6794,1.6755,1.6726,1.6693,1.6661,1.6643,1.6615,1.6587,1.6545,1.6519,1.6466,1.6425,1.6384,1.6362,1.6354,1.6351,1.6344,1.6349,1.6359,1.6354,1.6415,1.6353,1.6353,1.6354,1.6354,1.6354,1.681,1.6783,1.6748,1.6709,1.6683,1.6653,1.6625,1.6601,1.6566,1.6522,1.651,1.6467,1.6432,1.6375,1.6352,1.6318,1.6321,1.631,1.6307,1.6305,1.6305,1.6365,1.631,1.631,1.631,1.631,1.631,0,1.6762,1.6739,1.6704,1.6659,1.6629,1.6625,1.6589,1.6564,1.6526,1.6494,1.6461,1.6413,1.6374,1.6343,1.6302,1.6281,1.6276,1.6271,1.6272,1.6267,1.6304,1.6315,1.6275,1.6275,1.6275,1.6275,1.6275,1.6275,1.6734,1.6689,1.6674,1.6616,1.6593,1.655,1.653,1.6503,1.6477,1.6425,1.6392,1.6372,1.6341,1.6298,1.6262,1.6253,1.6239,1.6235,1.6226,1.6261,1.6265,1.6268,1.6278,1.6232,1.6232,1.6192,1.6192,1.6191]},{"header":{"parameterUnit":"m.s-1","parameterCategory":1,"la1":30.2991,"la2":30.254,"lo1":-89.0895,"lo2":-89.0444,"dy":0.0017,"dx":0.0017,"nx":28,"ny":28,"refTime":"2026-01-29T03:00:00:Z","depth":0,"parameterNumber":3,"parameterNumberName":"V-component_of_WINDS"},"data":[0,0,0,0,0,0,0,0,0,0,0,0,0,0,0,0,0,0,0,0,0,0,0,0,0,0,0,0,0,0,0,0,0,0,0,0,0,0,0,0,0,0,0,0,0,0,0,0,0,0,0,0,0,0,0,0,0,0,0.875,0.875,0,0.8765,0.8765,0.8765,0.8797,0.8798,0.8798,0.8799,0.8812,0.8811,0.8811,0,0,0,0,0,0,0,0,0,0,0,0,0,0.8746,0.8746,0.875,0.875,0.875,0.8765,0.8765,0.8765,0.8797,0.8798,0.8798,0.8799,0.8812,0.8811,0.8811,0,0,0,0,0,0,0,0,0,0,0,0,0,0.8753,0.8746,0.875,0.8768,0.877,0.8765,0.8765,0.8765,0.8797,0.8798,0.8799,0.88,0.8812,0.8811,0.8811,0.8789,0,0,0.881,0.881,0,0,0,0,0,0,0,0,0.8753,0.8753,0.8765,0.8767,0.8769,0.878,0.8768,0.8773,0.8796,0.8786,0.8799,0.88,0.88,0.8801,0.8801,0.8789,0.879,0.881,0.8809,0.8809,0.8809,0,0,0,0,0,0,0,0.8752,0.8753,0.8756,0.8765,0.8767,0.8774,0.8776,0.8769,0.8787,0.8787,0.879,0.8791,0.8801,0.8802,0.8802,0.879,0.881,0.8809,0.8809,0.8809,0.8759,0.8758,0,0,0,0,0,0,0.8749,0.8752,0.8755,0.8756,0.8763,0.8774,0.8776,0.8775,0.8788,0.879,0.879,0.8793,0.8802,0.8802,0.8802,0.8776,0.8809,0.8809,0.8809,0.876,0.8758,0.8757,0,0,0,0,0,0,0.8749,0.8749,0.8755,0.8755,0.8756,0.8773,0.8772,0.8775,0.8775,0.879,0.8793,0.8787,0.8803,0.8803,0.8792,0.8777,0.8809,0.8808,0.8761,0.8759,0.8758,0.8723,0,0,0,0,0,0,0.8749,0.8749,0.8742,0.8754,0.8756,0.8744,0.8771,0.8775,0.8775,0.8778,0.8788,0.8791,0.8803,0.8792,0.8791,0.8777,0.8808,0.8762,0.876,0.8758,0.8725,0.872,0.8716,0,0,0,0,0,0.8749,0.8731,0.8741,0.8741,0.8747,0.8743,0.8744,0.876,0.8774,0.8765,0.8775,0.879,0.8779,0.8791,0.879,0.8775,0.8763,0.8761,0.8758,0.8728,0.8721,0.8716,0,0,0,0,0,0,0.8716,0.8733,0.8744,0.873,0.8735,0.8749,0.8739,0.8753,0.8753,0.8756,0.8775,0.8777,0.8763,0.8768,0.8781,0.8753,0.8773,0.8771,0.875,0.8744,0.874,0.8738,0.8808,0,0,0,0,0,0.8707,0.8703,0.8719,0.8705,0.8707,0.8722,0.8722,0.8733,0.8739,0.8741,0.8749,0.8753,0.875,0.8748,0.8746,0.8727,0.8728,0.8716,0.8711,0.8707,0.8704,0.8692,0.8687,0.8749,0.8749,0.8749,0,0,0.8688,0.8697,0.8694,0.8698,0.8703,0.8698,0.8724,0.8718,0.8714,0.874,0.8729,0.8735,0.8741,0.8725,0.8718,0.8729,0.8687,0.8704,0.8701,0.87,0.8689,0.8683,0.8678,0.8747,0.8748,0.8748,0,0,0.8651,0.8659,0.8647,0.8652,0.8659,0.867,0.8667,0.8679,0.8684,0.8674,0.8692,0.8688,0.8683,0.8685,0.8686,0.8649,0.8663,0.8648,0.8623,0.8611,0.8606,0.8602,0.8587,0.8582,0.8646,0.8645,0.8645,0,0.8627,0.8621,0.8639,0.8632,0.8632,0.8656,0.8644,0.8647,0.8653,0.8653,0.8665,0.8658,0.8664,0.8648,0.8639,0.8639,0.8635,0.8647,0.8606,0.8601,0.8598,0.8584,0.8578,0.8643,0.8644,0.8644,0.8644,0,0.859,0.8585,0.8575,0.8581,0.858,0.857,0.8586,0.8583,0.8595,0.8604,0.8592,0.86,0.8599,0.8597,0.8608,0.8582,0.8588,0.8602,0.8623,0.8589,0.8576,0.8571,0.8641,0.8641,0.8642,0.8642,0,0,0.8532,0.8548,0.8544,0.8546,0.8556,0.8552,0.8542,0.8543,0.8539,0.8542,0.8534,0.8529,0.8542,0.8542,0.8554,0.8544,0.8512,0.856,0.856,0.8549,0.8482,0.847,0.8464,0.8522,0.8521,0.8521,0.8481,0,0.8496,0.8482,0.8498,0.8479,0.8474,0.8496,0.8488,0.8492,0.85,0.8496,0.8505,0.85,0.8519,0.8519,0.851,0.8518,0.8499,0.8521,0.8513,0.8512,0.8509,0.8457,0.8445,0.8407,0.8476,0.8476,0.8475,0,0.8453,0.8454,0.8435,0.8445,0.8444,0.8436,0.8436,0.8433,0.8438,0.8444,0.8444,0.8458,0.8448,0.8469,0.8455,0.847,0.8467,0.847,0.8469,0.8468,0.849,0.8453,0.8395,0.8389,0.8467,0.8468,0.8469,0,0.841,0.8408,0.8396,0.8397,0.8409,0.8402,0.8407,0.8413,0.8411,0.8412,0.841,0.8409,0.8408,0.8407,0.8419,0.8434,0.8402,0.8425,0.8406,0.8405,0.8397,0.8397,0.8337,0.8398,0.8398,0.8398,0.8398,0,0.8368,0.8355,0.8377,0.8369,0.8355,0.8373,0.8358,0.8364,0.8369,0.8362,0.8382,0.8374,0.8393,0.8387,0.8397,0.8382,0.8382,0.8386,0.8388,0.8383,0.8382,0.838,0.8383,0.8397,0.8397,0.8397,0.8398,0,0.8318,0.8332,0.832,0.8332,0.8335,0.8323,0.8333,0.8326,0.8335,0.8326,0.8324,0.8338,0.8332,0.8346,0.8342,0.8348,0.8327,0.8334,0.8325,0.8327,0.8306,0.8307,0.8242,0.8233,0.8301,0.83,0.83,0,0.8289,0.828,0.8291,0.8288,0.8291,0.8286,0.8285,0.8302,0.8299,0.8303,0.8295,0.8291,0.8289,0.8278,0.8287,0.8283,0.829,0.8267,0.8289,0.8284,0.8287,0.8287,0.8285,0.8262,0.8261,0.8261,0.826,0,0.8236,0.8244,0.8241,0.8241,0.8239,0.8239,0.8241,0.8237,0.8255,0.8251,0.8246,0.8244,0.8239,0.8234,0.8233,0.8236,0.825,0.8253,0.8248,0.8242,0.8236,0.8237,0.8311,0.8254,0.8255,0.8255,0.8255,0.8256,0.8195,0.8187,0.8193,0.8189,0.8192,0.8193,0.8187,0.8195,0.8191,0.8189,0.8199,0.8191,0.8195,0.8194,0.8196,0.8189,0.8199,0.8192,0.819,0.8188,0.8184,0.8239,0.8189,0.8189,0.8189,0.8189,0.819,0,0.8141,0.8146,0.8143,0.8145,0.8141,0.8156,0.8158,0.8154,0.8147,0.815,0.8147,0.8139,0.8135,0.8143,0.8139,0.8131,0.8138,0.813,0.813,0.813,0.8176,0.818,0.8125,0.8125,0.8125,0.8125,0.8125,0.8125,0.8113,0.81,0.8108,0.8095,0.81,0.8093,0.8093,0.8093,0.8095,0.8086,0.8083,0.8088,0.8093,0.8089,0.8085,0.8087,0.8084,0.8073,0.8078,0.812,0.8127,0.8133,0.8136,0.8073,0.8073,0.8032,0.8031,0.8031]}]]